129  
ASUS46 KPDT 021025  
RWRPDT  
PENDLETON REGIONAL WEATHER ROUNDUP  
NATIONAL WEATHER SERVICE PENDLETON OREGON  
300 AM PDT MON MAY 2 2016  
 
NOTE: FAIR INDICATES FEW OR NO CLOUDS BELOW 12,000 FEET WITH NO  
SIGNIFICANT WEATHER AND/OR S TO VISIBILITY
.  
 
# INDICATES UNOFFICIAL STATION AND DATA  
 
WAZ520-021110-  
EAST SLOPES OF WASHINGTON CASCADES  
 
CITY SKY/WX TMP DP RH WIND PRES REMARKS
 
#CLE ELUM HS N/A 41 37 86 CALM 30.03R  
#CLE ELUM 2NW N/A 40 37 89 CALM N/A  
#CLE ELUM LAKE N/A 52 38 59 CALM 29.99F  
#GLENWOOD N/A 38 35 89 CALM 30.02S  
#MANASTASH CYN N/A 44 33 65 CALM 30.05F  
#NELSON 3SW N/A 45 38 76 CALM 30.20F  
#NILE N/A 39 35 85 CALM 29.34S  
#RONALD 2NW N/A 50 N/A N/A N1 29.95S  
#TEANAWAY 4NE N/A 41 38 89 CALM N/A  
#TROUT LAKE 1NE N/A 44 39 82 CALM 30.02S  
#TROUT LAKE 1E N/A 43 40 89 CALM 30.01F  

 
 
WAZ521-021110-  
SIMCOE HIGHLANDS  
 
CITY SKY/WX TMP DP RH WIND PRES REMARKS
 
#BICKLETON HS N/A 45 30 55 N3 N/A  
#CENTERVILLE 1SWN/A 40 34 79 CALM 29.98S  
#GOLDENDALE 1NE N/A 46 29 51 N3 N/A  
#GOODNOE HILLS N/A 57 41 55 N2 29.92S  
#LYLE 6NE N/A 56 40 55 CALM 29.96S  

 
 
WAZ026-021110-  
KITTITAS VALLEY  
 
CITY SKY/WX TMP DP RH WIND PRES REMARKS
 
ELLENSBURG AP CLEAR 46 38 73 E5 30.05S  
YTC-OPS AREA CLEAR 58 35 42 CALM 30.09S  
#ELLENSBURG CWU N/A 46 40 79 CALM 29.98R  
#ELLENSBURG 3NE N/A 44 38 79 CALM 30.05S  
#ELLENSBURG N/A 45 43 93 NE1 N/A  
#ELLENSBURG 1E N/A 42 N/A N/A CALM N/A  
#KITTITAS 3S N/A 38 36 92 CALM 30.03S  
#THORP 6N N/A 48 38 68 NE6 30.04S  

 
 
WAZ027-021110-  
YAKIMA VALLEY  
 
CITY SKY/WX TMP DP RH WIND PRES REMARKS
 
SUNNYSIDE AP CLEAR 43 39 86 CALM 30.03S  
YAKIMA AIRPORT CLEAR 47 37 68 W6 30.05S  
YAKIMA-VAGABOND CLEAR 47 37 68 E7 30.03S  
#DONALD 2NE N/A 56 21 25 W1 28.88R  
#GRANDVIEW N/A 48 40 74 CALM 30.03R  
#MABTON N/A 48 40 74 CALM 30.02S  
#NACHES 2SW N/A 53 39 59 W7 30.05F  
#TERRACE HTS N/A 48 40 74 CALM 29.98S  
#TOPPENISH N/A 53 41 64 CALM 29.93S  
#WEST VALLEY N/A 47 39 74 CALM 30.01R  
#W YAKIMA N/A 54 40 59 W2 30.02R  
#WHITE SWAN 5E N/A 48 41 77 CALM 30.01S  
#WILEY CITY 3W N/A 52 35 52 CALM 30.01S  

 
 
WAZ028-021110-  
LOWER COLUMBIA BASIN...WASHINGTON  
 
CITY SKY/WX TMP DP RH WIND PRES REMARKS
 
HANFORD CLEAR 55 39 55 W9 30.00S  
PASCO CLEAR 44 41 89 N6 30.02S  
PROSSER AWOS N/A 45 43 93 SW2 30.06S  
RICHLAND AWOS CLEAR 46 41 83 CALM 30.03R  
#BENTON CITY N/A 50 42 74 CALM 29.91S  
#CONNELL 5N N/A 47 43 86 CALM 30.00S  
#CONNELL 5NW N/A 47 23 38 CALM 29.96S  
#ELTOPIA 6NW N/A 53 47 80 CALM 28.98R  
#KAHLOTUS N/A 50 44 80 S5 30.00R  
#KENNEWICK 3S N/A 55 45 69 CALM 30.00S  
#PATERSON N/A 53 43 69 E1 29.99R  
#SAGEMOOR 2W N/A 50 45 83 CALM 29.85R  
#TOUCHET 2S N/A 41 38 89 CALM 29.99R  
#WEST PASCO N/A 51 43 74 CALM 30.06F  

 
 
WAZ029-021110-  
FOOTHILLS OF THE BLUES...WASHINGTON  
 
CITY SKY/WX TMP DP RH WIND PRES REMARKS
 
WALLA WALLA AP CLEAR 53 44 71 SE6 30.02R  
#CLYDE 6NW N/A 49 44 83 CALM 29.99F  
#DAYTON SCHOOL N/A 49 40 71 CALM 30.05R  
#LOWDEN 2SE N/A 44 42 93 CALM 29.98R  
#PLEASANT VIEW 1N/A 54 46 74 CALM 30.03S  
#PRESCOTT N/A 48 45 89 CALM 29.99R  
#SUDBURY N/A 57 N/A N/A CALM N/A  
#WAITSBURG 5S N/A 53 44 71 CALM 30.09S  
#WAITSBURG 8N N/A 44 24 45 N1 29.88S  
#WALLA WALLA U N/A 53 47 80 CALM 30.00R  
#WHITMAN MISSIONN/A 47 44 89 CALM 30.03R  

 
 
WAZ030-021110-  
BLUE MOUNTAINS...WASHINGTON  
 
CITY SKY/WX TMP DP RH WIND PRES REMARKS
 
#DIXIE 5SE N/A 60 41 49 S1 29.99S  

 
 
ORZ009-041-WAZ024-021110-  
COLUMBIA RIVER GORGE  
 
CITY SKY/WX TMP DP RH WIND PRES REMARKS
 
HOOD RIVER AP CLEAR 48 41 77 CALM 30.02S  
THE DALLES AP CLEAR 48 39 71 E3 30.02R  
#ARLINGTON AIRPON/A 55 40 57 N3 30.00S  
#CELILO DOT N/A 54 39 57 S8 N/A  
#MARYHILL 2W N/A 56 42 59 SW1 N/A  
#MOSIER 1S N/A 54 30 40 CALM 30.00S  
#MURDOCK N/A 53 42 66 CALM 29.99R  
#RUFUS DOT N/A 55 42 61 S9 N/A  
 

 
 
ORZ510-021110-  
NORTH CENTRAL OREGON  
 
CITY SKY/WX TMP DP RH WIND PRES REMARKS
 
#ANTELOPE N/A 45 37 73 NE3 29.87R  
#COW CYN RST AREN/A 54 35 48 N3 N/A  
#DUFUR 9E N/A 58 37 45 CALM 30.04R  
#GRASS VALLEY N/A 42 37 82 SE2 N/A  
#GRASS VALLEY 1SN/A 50 36 58 E1 29.98S  
#KENT DOT N/A 49 28 44 CALM N/A  
#MAUPIN SCHOOL N/A 52 38 59 CALM 30.06S  
#MORO SCHOOL N/A 44 39 82 CALM 30.04S  
#SHANIKO 5WSW N/A 54 31 41 SE5 N/A  
#TYGH VALLEY 2NEN/A 48 38 68 CALM 30.01S  
#WAPANITIA AIRPON/A 46 38 73 CALM 30.02S  
#WASCO DOT N/A 44 37 76 SE1 N/A  
#WASCO 5NE N/A 41 37 86 CALM 30.00S  

 
 
ORZ511-021110-  
CENTRAL OREGON  
 
CITY SKY/WX TMP DP RH WIND PRES REMARKS
 
BEND AIRPORT CLEAR 43 34 70 CALM 30.08R  
MADRAS AIRPORT CLEAR 41 36 82 S9 30.07S  
PRINEVILLE AP CLEAR 37 30 75 CALM 30.08R  
REDMOND AIRPORT CLEAR 42 33 70 S7 30.07R  
#ASHWOOD SCHOOL N/A 46 37 71 S5 30.02S  
#BEND 1SW N/A 40 34 79 CALM N/A  
#BEND-AWBREY N/A 48 38 68 CALM 30.00S  
#BEND-KIM LN N/A 46 37 71 CALM 30.06R  
#CULVER N/A 46 37 71 CALM 29.97R  
#LAKE BILLY CHINN/A 51 N/A N/A CALM 30.14R  
#POWELL BUTTE N/A 53 35 50 NW3 29.94S  
#PRINEVILLE 3N N/A 42 36 79 E1 30.02R  
#WARM SPRINGS N/A 51 38 61 CALM 30.01R  
 

 
 
 
ORZ509-021110-  
EAST SLOPES OF OREGON CASCADES  
 
CITY SKY/WX TMP DP RH WIND PRES REMARKS
 
SISTERS AWOS N/A 37 34 89 CALM 30.05R  
#BLUE BOX PASS N/A 49 N/A N/A N3 N/A  
#BLACK BUTTE RNCN/A 39 35 85 CALM 30.03R  
#CAMP SHERMAN N/A 36 31 82 CALM 30.09R  
#LA PINE 4NW N/A 39 31 73 CALM 30.03R  
#LAVA BUTTE DOT N/A 42 33 70 CALM N/A  
#SISTERS AIRPOR N/A 38 37 96 CALM 30.17S  
#SISTERS ODOT N/A 38 N/A N/A CALM N/A  
#SISTERS 3N N/A 36 27 69 CALM 30.06S  
#SUNRIVER N/A 42 35 76 CALM 30.01R  
#TUMALO 3W N/A 50 36 58 SW5 29.88S  
#WANOGA BUTTE D N/A 46 28 49 NE1 N/A  
 

 
 
ORZ044-021110-  
LOWER COLUMBIA BASIN...OREGON  
 
CITY SKY/WX TMP DP RH WIND PRES REMARKS
 
HERMISTON CLEAR 46 41 83 SE3 30.01R  
#BOARDMAN SCHOOLN/A 46 40 79 CALM 30.01S  
#BOARDMAN 8SW N/A 52 42 69 NW1 29.99S  
#ECHO 8SW N/A 47 40 76 SW2 30.02R  
#I-84 EX 198 DOTN/A 56 42 59 NE10 N/A  
#UMATILLA SCHOOLN/A 48 48 100 CALM 30.03S  
#UMATILLA N/A 51 41 68 CALM 29.94R  

 
 
ORZ507-021110-  
NORTHERN FOOTHILLS OF THE BLUES  
 
CITY SKY/WX TMP DP RH WIND PRES REMARKS
 
PENDLETON AIRPT CLEAR 45 40 82 E5 30.02S  
#ADAMS 3WNW N/A 45 41 86 CALM 30.02S  
#ATHENA N/A 42 39 89 CALM 30.04R  
#CAYUSE N/A 54 45 71 E6 29.99S  
#HELIX SCHOOL N/A 43 39 86 CALM 30.02R  
#HELIX 3N N/A 51 43 74 N7 30.00S  
#HELIX 6SW N/A 47 42 83 E2 30.02S  
#HOLDMAN 5SE N/A 47 42 83 CALM 30.01S  
#HOLDMAN 6E N/A 49 41 74 CALM 29.81S  
#M-F FERNDALE N/A 49 42 77 CALM 30.01R  
#M-F GROVE ELEM N/A 51 42 71 VRB2 30.00R  
#M-FREEWATER 5SEN/A 53 44 71 CALM 30.02R  
#PENDLETON DNTN N/A 47 36 65 E3 30.04S  
#PDT AQUATIC CTRN/A 47 33 58 E3 30.05S  
#PDT SUNRIDGE N/A 42 38 86 CALM 30.04R  
#PENDLETON 7NW N/A 48 41 77 CALM 27.45S  
#PILOT ROCK N/A 46 38 73 CALM 30.03F  
#TUTUILLA N/A 41 38 89 CALM 30.03R  
#UMAPINE 2E N/A 47 44 89 CALM 29.99R  
#WESTON SCHOOL N/A 53 40 61 CALM 29.95R  
 

 
 
ORZ508-021110-  
SOUTHERN FOOTHILLS OF THE BLUES  
 
CITY SKY/WX TMP DP RH WIND PRES REMARKS
 
#AJAX N/A 58 31 36 CALM 27.78S  
#CONDON SCHOOL N/A 53 39 59 N5 30.01S  
#CONDON 5W N/A 56 37 49 NE8 30.03F  
#FOSSIL SCHOOL N/A 42 37 82 CALM 30.00S  
#HEPPNER EOC N/A 51 41 68 E7 29.94S  
#HEPPNER 4NE N/A 50 41 71 E3 30.01R  
#LEXINGTON 2SE N/A 51 42 71 SE7 30.00R  
#RUGGS 5NE N/A 51 40 66 CALM 30.20S  
#RUGGS 2SW N/A 53 41 64 S6 30.02S  
 

 
 
ORZ502-503-021110-  
BLUE MOUNTAINS  
 
CITY SKY/WX TMP DP RH WIND PRES REMARKS
 
#BATTLE MTN DOT N/A 45 45 100 S8 N/A  
#GREENHORN 9SW N/A 34 32 92 CALM 26.32R  
#HARDMAN 10S N/A 61 34 36 N5 30.22R  
#HEPPNER 15SE N/A 47 34 60 E1 30.00S  
#LADD CYN SMT N/A 36 33 89 CALM N/A  
#LADD CREEK ODOTN/A 42 37 82 S5 N/A  
#N POWDER DOT N/A 37 37 100 CALM N/A  
#PIKES PEAK N/A 59 41 51 CALM 27.99S  
#TOLLGATE N/A 44 39 82 CALM 29.98S  
#TROY SCHOOL N/A 48 44 86 CALM 29.93R  
#UKIAH N/A 35 33 92 CALM 30.03R  
#WESTON 4E N/A 56 43 62 E8 29.97S  

 
 
ORZ505-021110-  
JOHN DAY BASIN  
 
CITY SKY/WX TMP DP RH WIND PRES REMARKS
 
JOHN DAY CLEAR 47 33 58 E8 30.12R  
#DAYVILLE SCHOOLN/A 49 34 56 CALM 30.06R  
#MITCHELL N/A 46 40 79 E5 30.21S  
#MITCHELL 8NW N/A 56 35 45 CALM 30.19S  
#MONUMENT HS N/A 44 38 79 CALM 30.03R  
#MT. VERNON 5SE N/A 53 33 46 S7 30.06S  
#SPRAY SCHOOL N/A 43 N/A N/A CALM N/A  
#WINLOCK N/A 47 39 74 CALM 30.04R  

 
 
ORZ506-021110-  
OCHOCO AND JOHN DAY HIGHLANDS  
 
CITY SKY/WX TMP DP RH WIND PRES REMARKS
 
#HORSE RIDGE DO N/A 36 25 64 SE3 N/A  
#KEYES SMT DOT N/A 48 38 68 NW2 N/A  
#PAULINA SCHOOL N/A 69 34 27 CALM 29.31R  
#PINE MTN OBS N/A 47 28 47 SE9 N/A  
#PRAIRIE CITY N/A 39 32 76 CALM 30.08S  
#SENECA N/A 34 N/A N/A CALM N/A  
#SENECA 9NW N/A 29 26 88 CALM 30.08R  

 
 
ORZ049-021110-  
GRANDE RONDE VALLEY  
 
CITY SKY/WX TMP DP RH WIND PRES REMARKS
 
LA GRANDE CLEAR 43 32 65 CALM 30.10R  
#COVE N/A 44 40 86 SW1 30.13R  
#COVE SCHOOL N/A 44 38 79 CALM 30.11S  
#COVE 6NW N/A 39 35 85 CALM 29.63S  
#ELGIN 3N N/A 41 36 82 CALM 30.08R  
#ISLAND CITY 4N N/A 64 47 54 CALM 29.91S  
#LADD CYN DOT N/A 48 41 77 SE15 N/A WCI 42  
#UNION 1S N/A 46 38 73 CALM 29.98R  

 
 
ORZ050-021110-  
WALLOWA COUNTY  
 
CITY SKY/WX TMP DP RH WIND PRES REMARKS
 
JOSEPH AIRPORT CLEAR 41 37 86 S3 30.13S  
#ENTERPRISE AP N/A 49 29 46 CALM 30.05R  
#ENTERPRISE HS N/A 39 36 89 CALM 30.13R  
#IMNAHA SCHOOL N/A 49 44 83 S2 30.10R  
#IMNAHA 10S N/A 46 41 83 SW3 30.10R  
#JOSEPH 3N N/A 38 32 79 CALM 30.13R  
#JOSEPH 3W N/A 47 36 65 W2 29.96S  
#LOSTINE N/A 40 38 92 CALM 29.88R  
#MT HOWARD 8000 N/A 40 33 76 CALM 30.22F  
#PROMISE 1S N/A 43 41 93 CALM 30.15S  
#WALLOWA SCHOOL N/A 39 37 92 CALM 30.08R  
 

 
 
CLICK HERE TO GO TO PREVIOUS BULLETINS.

The Nexlab OR Page
The Nexlab WA Page Main Text Page